Location: �chenoz-la-M�line
(47.6009°N, 6.1354°E)
Time: 08:45:38
(UTC+00:00)

Cosmos 2142 Rocket - Visible Passes

Search period start: 09 May 2021 00:00
Search period end: 19 May 2021 00:00
Orbit: 953 x 1004 km, 82.9° (Epoch: 08 May)

Date Brightness Start Highest point End Pass type
(mag) Time Alt. Az. Time Alt. Az. Time Alt. Az.
09 May 7.2 03:26:50 10° NNE 03:31:53 24° ENE 03:36:49 10° ESE visible
11 May 7.7 02:35:32 10° NNE 02:38:22 13° ENE 02:41:11 10° E visible
11 May 7.9 19:42:23 10° W 19:45:26 14° WNW 19:48:30 10° NNW visible
12 May 7.2 03:00:36 10° NNE 03:05:23 22° ENE 03:10:05 10° ESE visible
14 May 7.6 02:09:37 10° NE 02:11:50 12° NE 02:14:02 10° ENE visible
15 May 7.2 02:34:22 10° NNE 02:38:52 20° ENE 02:43:20 10° ESE visible
16 May 6.4 03:00:05 10° N 03:05:42 33° ENE 03:11:12 10° SE visible
17 May 7.7 01:44:01 10° NE 01:45:17 11° NE 01:46:33 10° ENE visible
18 May 7.2 02:08:10 10° NNE 02:12:22 18° ENE 02:16:32 10° ESE visible
